Time,TemperatureF,DewpointF,PressureIn,WindDirection,WindDirectionDegrees,WindSpeedMPH,WindSpeedGustMPH,Humidity,HourlyPrecipIn,Conditions,Clouds,dailyrainin,SoftwareType,DateUTC
2013-03-24 00:00:00,32.5,2.3,29.88,WNW,296,1.0,0.0,27,0.00,,,-99.99,FreeWX-Wi 1.02,2013-03-24 04:00:00,
2013-03-24 00:05:00,32.5,2.3,29.88,WNW,295,1.0,5.4,27,0.00,,,-99.99,FreeWX-Wi 1.02,2013-03-24 04:05:00,
2013-03-24 00:10:00,32.5,2.3,29.88,WNW,295,1.0,5.4,27,0.00,,,-99.99,FreeWX-Wi 1.02,2013-03-24 04:10:00,
2013-03-24 00:15:00,32.4,2.1,29.88,WNW,295,1.0,5.4,27,0.00,,,-99.99,FreeWX-Wi 1.02,2013-03-24 04:15:00,
2013-03-24 00:20:00,32.4,2.1,29.88,WNW,293,1.0,4.0,27,0.00,,,-99.99,FreeWX-Wi 1.02,2013-03-24 04:20:00,
2013-03-24 00:25:00,32.2,1.9,29.88,WNW,293,1.0,2.7,27,0.00,,,-99.99,FreeWX-Wi 1.02,2013-03-24 04:25:00,
2013-03-24 00:30:00,32.0,1.8,29.88,WNW,291,1.0,3.6,27,0.00,,,-99.99,FreeWX-Wi 1.02,2013-03-24 04:30:00,
2013-03-24 00:35:00,32.0,1.8,29.88,WNW,289,1.0,4.0,27,0.00,,,-99.99,FreeWX-Wi 1.02,2013-03-24 04:35:00,
2013-03-24 00:40:00,32.5,2.3,29.88,WNW,291,1.0,4.9,27,0.00,,,-99.99,FreeWX-Wi 1.02,2013-03-24 04:40:00,
2013-03-24 00:45:00,32.2,1.9,29.88,WNW,292,1.0,2.7,27,0.00,,,-99.99,FreeWX-Wi 1.02,2013-03-24 04:45:00,
2013-03-24 00:50:00,31.6,1.6,29.88,WNW,290,1.0,3.1,27,0.00,,,-99.99,FreeWX-Wi 1.02,2013-03-24 04:50:00,
2013-03-24 00:55:00,31.8,1.8,29.88,WNW,294,1.0,4.0,27,0.00,,,-99.99,FreeWX-Wi 1.02,2013-03-24 04:55:00,
2013-03-24 01:00:00,31.6,1.6,29.88,WNW,297,1.0,4.0,27,0.00,,,-99.99,FreeWX-Wi 1.02,2013-03-24 05:00:00,
2013-03-24 01:05:00,31.5,1.4,29.88,WNW,298,1.0,3.6,27,0.00,,,-99.99,FreeWX-Wi 1.02,2013-03-24 05:05:00,
2013-03-24 01:10:00,31.3,1.2,29.88,WNW,296,1.0,3.1,27,0.00,,,-99.99,FreeWX-Wi 1.02,2013-03-24 05:10:00,
2013-03-24 01:15:00,31.3,1.2,29.88,WNW,291,1.0,4.9,27,0.00,,,-99.99,FreeWX-Wi 1.02,2013-03-24 05:15:00,
2013-03-24 01:20:00,31.1,1.0,29.88,WNW,291,1.0,5.8,27,0.00,,,-99.99,FreeWX-Wi 1.02,2013-03-24 05:20:00,
2013-03-24 01:25:00,31.1,1.0,29.88,WNW,288,1.0,4.0,27,0.00,,,-99.99,FreeWX-Wi 1.02,2013-03-24 05:25:00,
2013-03-24 01:30:00,30.9,0.9,29.88,WNW,283,1.0,0.0,27,0.00,,,-99.99,FreeWX-Wi 1.02,2013-03-24 05:30:00,
2013-03-24 01:35:00,30.6,0.7,29.88,West,273,1.0,0.0,27,0.00,,,-99.99,FreeWX-Wi 1.02,2013-03-24 05:35:00,
2013-03-24 01:40:00,30.6,0.7,29.88,North,-999,0.0,0.0,27,0.00,,,-99.99,FreeWX-Wi 1.02,2013-03-24 05:40:00,
2013-03-24 01:45:00,30.2,0.3,29.88,North,-999,0.0,0.0,27,0.00,,,-99.99,FreeWX-Wi 1.02,2013-03-24 05:45:00,
2013-03-24 01:50:00,30.2,0.3,29.88,North,-999,0.0,0.0,27,0.00,,,-99.99,FreeWX-Wi 1.02,2013-03-24 05:50:00,
2013-03-24 01:55:00,30.2,0.3,29.88,North,-999,0.0,0.0,27,0.00,,,-99.99,FreeWX-Wi 1.02,2013-03-24 05:55:00,
2013-03-24 02:00:00,30.2,0.3,29.88,North,-999,0.0,4.0,27,0.00,,,-99.99,FreeWX-Wi 1.02,2013-03-24 06:00:00,
2013-03-24 02:05:00,30.4,0.5,29.88,North,-999,0.0,5.4,27,0.00,,,-99.99,FreeWX-Wi 1.02,2013-03-24 06:05:00,
2013-03-24 02:10:00,30.7,0.7,29.88,WNW,298,1.0,4.0,27,0.00,,,-99.99,FreeWX-Wi 1.02,2013-03-24 06:10:00,
2013-03-24 02:15:00,31.1,1.0,29.88,WNW,302,1.0,4.9,27,0.00,,,-99.99,FreeWX-Wi 1.02,2013-03-24 06:15:00,
2013-03-24 02:20:00,31.3,1.2,29.88,WNW,298,2.0,4.9,27,0.00,,,-99.99,FreeWX-Wi 1.02,2013-03-24 06:20:00,
2013-03-24 02:25:00,31.3,1.2,29.85,WNW,295,2.0,4.0,27,0.00,,,-99.99,FreeWX-Wi 1.02,2013-03-24 06:25:00,
2013-03-24 02:30:00,31.1,1.0,29.85,WNW,294,2.0,4.0,27,0.00,,,-99.99,FreeWX-Wi 1.02,2013-03-24 06:30:00,
2013-03-24 02:35:00,31.1,1.0,29.85,WNW,293,2.0,4.0,27,0.00,,,-99.99,FreeWX-Wi 1.02,2013-03-24 06:35:00,
2013-03-24 02:40:00,31.3,1.2,29.88,WNW,289,3.0,4.0,27,0.00,,,-99.99,FreeWX-Wi 1.02,2013-03-24 06:40:00,
2013-03-24 02:45:00,31.1,1.0,29.88,WNW,288,2.0,3.1,27,0.00,,,-99.99,FreeWX-Wi 1.02,2013-03-24 06:45:00,
2013-03-24 02:50:00,30.7,0.7,29.88,WNW,286,2.0,4.0,27,0.00,,,-99.99,FreeWX-Wi 1.02,2013-03-24 06:50:00,
2013-03-24 02:55:00,30.6,0.7,29.85,WNW,287,1.0,4.0,27,0.00,,,-99.99,FreeWX-Wi 1.02,2013-03-24 06:55:00,
2013-03-24 03:00:00,30.6,0.7,29.85,WNW,288,1.0,4.9,27,0.00,,,-99.99,FreeWX-Wi 1.02,2013-03-24 07:00:00,
2013-03-24 03:05:00,30.6,0.7,29.85,WNW,283,1.0,3.1,27,0.00,,,-99.99,FreeWX-Wi 1.02,2013-03-24 07:05:00,
2013-03-24 03:10:00,30.4,0.5,29.85,North,-999,0.0,3.6,27,0.00,,,-99.99,FreeWX-Wi 1.02,2013-03-24 07:10:00,
2013-03-24 03:15:00,30.4,0.5,29.85,WNW,286,1.0,3.6,27,0.00,,,-99.99,FreeWX-Wi 1.02,2013-03-24 07:15:00,
2013-03-24 03:20:00,30.4,0.5,29.85,WNW,285,1.0,4.0,27,0.00,,,-99.99,FreeWX-Wi 1.02,2013-03-24 07:20:00,
2013-03-24 03:25:00,30.4,0.5,29.85,West,281,2.0,5.4,27,0.00,,,-99.99,FreeWX-Wi 1.02,2013-03-24 07:25:00,
2013-03-24 03:30:00,30.4,0.5,29.85,WNW,283,2.0,5.8,27,0.00,,,-99.99,FreeWX-Wi 1.02,2013-03-24 07:30:00,
2013-03-24 03:35:00,30.2,0.3,29.85,WNW,285,2.0,4.0,27,0.00,,,-99.99,FreeWX-Wi 1.02,2013-03-24 07:35:00,
2013-03-24 03:40:00,29.8,0.0,29.85,WNW,284,2.0,3.1,27,0.00,,,-99.99,FreeWX-Wi 1.02,2013-03-24 07:40:00,
2013-03-24 03:45:00,29.7,-0.2,29.85,WNW,282,2.0,0.0,27,0.00,,,-99.99,FreeWX-Wi 1.02,2013-03-24 07:45:00,
2013-03-24 03:50:00,29.7,-0.2,29.85,West,281,1.0,3.6,27,0.00,,,-99.99,FreeWX-Wi 1.02,2013-03-24 07:50:00,
2013-03-24 03:55:00,29.7,-0.2,29.82,West,280,1.0,2.2,27,0.00,,,-99.99,FreeWX-Wi 1.02,2013-03-24 07:55:00,
2013-03-24 04:00:00,29.7,-0.2,29.82,North,-999,0.0,0.0,27,0.00,,,-99.99,FreeWX-Wi 1.02,2013-03-24 08:00:00,
2013-03-24 04:05:00,29.5,-0.4,29.82,North,-999,0.0,0.0,27,0.00,,,-99.99,FreeWX-Wi 1.02,2013-03-24 08:05:00,
2013-03-24 04:10:00,29.3,-0.4,29.82,North,-999,0.0,0.0,27,0.00,,,-99.99,FreeWX-Wi 1.02,2013-03-24 08:10:00,
2013-03-24 04:15:00,28.9,-0.8,29.82,North,-999,0.0,0.0,27,0.00,,,-99.99,FreeWX-Wi 1.02,2013-03-24 08:15:00,
2013-03-24 04:20:00,28.6,-1.1,29.82,North,-999,0.0,0.0,27,0.00,,,-99.99,FreeWX-Wi 1.02,2013-03-24 08:20:00,
2013-03-24 04:25:00,28.6,-1.1,29.85,North,-999,0.0,0.0,27,0.00,,,-99.99,FreeWX-Wi 1.02,2013-03-24 08:25:00,
2013-03-24 04:30:00,28.2,-1.5,29.85,North,-999,0.0,0.0,27,0.00,,,-99.99,FreeWX-Wi 1.02,2013-03-24 08:30:00,
2013-03-24 04:35:00,27.9,-0.9,29.85,North,-999,0.0,0.0,28,0.00,,,-99.99,FreeWX-Wi 1.02,2013-03-24 08:35:00,
2013-03-24 04:40:00,27.7,1.0,29.85,North,-999,0.0,0.0,31,0.00,,,-99.99,FreeWX-Wi 1.02,2013-03-24 08:40:00,
2013-03-24 04:45:00,27.0,0.3,29.85,North,-999,0.0,0.0,31,0.00,,,-99.99,FreeWX-Wi 1.02,2013-03-24 08:45:00,
2013-03-24 04:50:00,27.0,1.8,29.85,North,-999,0.0,0.0,33,0.00,,,-99.99,FreeWX-Wi 1.02,2013-03-24 08:50:00,
2013-03-24 04:55:00,26.8,1.6,29.85,North,-999,0.0,0.0,33,0.00,,,-99.99,FreeWX-Wi 1.02,2013-03-24 08:55:00,
2013-03-24 05:00:00,26.6,2.1,29.85,North,-999,0.0,0.0,34,0.00,,,-99.99,FreeWX-Wi 1.02,2013-03-24 09:00:00,
2013-03-24 05:05:00,26.8,1.6,29.85,North,-999,0.0,0.0,33,0.00,,,-99.99,FreeWX-Wi 1.02,2013-03-24 09:05:00,
2013-03-24 05:10:00,27.1,0.5,29.85,North,-999,0.0,0.0,31,0.00,,,-99.99,FreeWX-Wi 1.02,2013-03-24 09:10:00,
2013-03-24 05:15:00,27.5,0.9,29.85,North,-999,0.0,3.6,31,0.00,,,-99.99,FreeWX-Wi 1.02,2013-03-24 09:15:00,
2013-03-24 05:20:00,27.9,-0.9,29.85,North,-999,0.0,0.0,28,0.00,,,-99.99,FreeWX-Wi 1.02,2013-03-24 09:20:00,
2013-03-24 05:25:00,27.7,-1.1,29.85,North,-999,0.0,0.0,28,0.00,,,-99.99,FreeWX-Wi 1.02,2013-03-24 09:25:00,
2013-03-24 05:30:00,27.3,-1.5,29.85,North,-999,0.0,0.0,28,0.00,,,-99.99,FreeWX-Wi 1.02,2013-03-24 09:30:00,
2013-03-24 05:35:00,27.1,-1.7,29.85,North,-999,0.0,0.0,28,0.00,,,-99.99,FreeWX-Wi 1.02,2013-03-24 09:35:00,
2013-03-24 05:40:00,27.0,-1.7,29.85,North,-999,0.0,0.0,28,0.00,,,-99.99,FreeWX-Wi 1.02,2013-03-24 09:40:00,
2013-03-24 05:45:00,27.1,-1.7,29.85,North,-999,0.0,0.0,28,0.00,,,-99.99,FreeWX-Wi 1.02,2013-03-24 09:45:00,
2013-03-24 05:50:00,27.5,-1.3,29.85,North,-999,0.0,2.2,28,0.00,,,-99.99,FreeWX-Wi 1.02,2013-03-24 09:50:00,
2013-03-24 05:55:00,27.9,-0.9,29.88,North,-999,0.0,0.0,28,0.00,,,-99.99,FreeWX-Wi 1.02,2013-03-24 09:55:00,
2013-03-24 06:00:00,27.9,-0.9,29.88,North,-999,0.0,0.0,28,0.00,,,-99.99,FreeWX-Wi 1.02,2013-03-24 10:00:00,
2013-03-24 06:05:00,27.5,-1.3,29.88,North,-999,0.0,0.0,28,0.00,,,-99.99,FreeWX-Wi 1.02,2013-03-24 10:05:00,
2013-03-24 06:10:00,27.0,-1.7,29.88,North,-999,0.0,0.0,28,0.00,,,-99.99,FreeWX-Wi 1.02,2013-03-24 10:10:00,
2013-03-24 06:15:00,26.8,-1.8,29.88,North,-999,0.0,0.0,28,0.00,,,-99.99,FreeWX-Wi 1.02,2013-03-24 10:15:00,
2013-03-24 06:20:00,27.0,-1.7,29.88,North,-999,0.0,0.0,28,0.00,,,-99.99,FreeWX-Wi 1.02,2013-03-24 10:20:00,
2013-03-24 06:25:00,27.0,-1.7,29.88,North,-999,0.0,0.0,28,0.00,,,-99.99,FreeWX-Wi 1.02,2013-03-24 10:25:00,
2013-03-24 06:30:00,26.8,-1.8,29.88,North,-999,0.0,0.0,28,0.00,,,-99.99,FreeWX-Wi 1.02,2013-03-24 10:30:00,
2013-03-24 06:35:00,26.6,-1.3,29.88,North,-999,0.0,0.0,29,0.00,,,-99.99,FreeWX-Wi 1.02,2013-03-24 10:35:00,
2013-03-24 06:40:00,26.4,-1.5,29.88,North,-999,0.0,0.0,29,0.00,,,-99.99,FreeWX-Wi 1.02,2013-03-24 10:40:00,
2013-03-24 06:45:00,26.2,-1.7,29.88,North,-999,0.0,0.0,29,0.00,,,-99.99,FreeWX-Wi 1.02,2013-03-24 10:45:00,
2013-03-24 06:50:00,26.6,-1.3,29.88,North,-999,0.0,0.0,29,0.00,,,-99.99,FreeWX-Wi 1.02,2013-03-24 10:50:00,
2013-03-24 06:55:00,26.6,-1.3,29.88,North,-999,0.0,0.0,29,0.00,,,-99.99,FreeWX-Wi 1.02,2013-03-24 10:55:00,
2013-03-24 07:00:00,26.8,-1.8,29.88,North,-999,0.0,0.0,28,0.00,,,-99.99,FreeWX-Wi 1.02,2013-03-24 11:00:00,
2013-03-24 07:05:00,26.8,-1.8,29.88,North,-999,0.0,0.0,28,0.00,,,-99.99,FreeWX-Wi 1.02,2013-03-24 11:05:00,
2013-03-24 07:10:00,27.0,-1.7,29.88,North,-999,0.0,0.0,28,0.00,,,-99.99,FreeWX-Wi 1.02,2013-03-24 11:10:00,
2013-03-24 07:15:00,27.1,-1.7,29.88,North,-999,0.0,0.0,28,0.00,,,-99.99,FreeWX-Wi 1.02,2013-03-24 11:15:00,
2013-03-24 07:20:00,27.3,-1.5,29.88,North,-999,0.0,0.0,28,0.00,,,-99.99,FreeWX-Wi 1.02,2013-03-24 11:20:00,
2013-03-24 07:26:00,27.7,-1.1,29.88,North,-999,0.0,0.0,28,0.00,,,-99.99,FreeWX-Wi 1.02,2013-03-24 11:26:00,
2013-03-24 07:31:00,28.8,-0.2,29.88,North,-999,0.0,0.0,28,0.00,,,-99.99,FreeWX-Wi 1.02,2013-03-24 11:31:00,
2013-03-24 07:36:00,29.8,0.7,29.88,North,-999,0.0,0.0,28,0.00,,,-99.99,FreeWX-Wi 1.02,2013-03-24 11:36:00,
2013-03-24 07:41:00,31.1,1.8,29.88,North,-999,0.0,0.0,28,0.00,,,-99.99,FreeWX-Wi 1.02,2013-03-24 11:41:00,
2013-03-24 07:46:00,31.5,1.4,29.88,North,-999,0.0,2.7,27,0.00,,,-99.99,FreeWX-Wi 1.02,2013-03-24 11:46:00,
2013-03-24 07:51:00,32.2,1.9,29.88,North,-999,0.0,0.0,27,0.00,,,-99.99,FreeWX-Wi 1.02,2013-03-24 11:51:00,
2013-03-24 07:56:00,32.4,2.1,29.88,North,-999,0.0,0.0,27,0.00,,,-99.99,FreeWX-Wi 1.02,2013-03-24 11:56:00,
2013-03-24 08:01:00,32.7,2.5,29.88,North,-999,0.0,3.1,27,0.00,,,-99.99,FreeWX-Wi 1.02,2013-03-24 12:01:00,
2013-03-24 08:06:00,33.4,3.0,29.88,North,-999,0.0,3.1,27,0.00,,,-99.99,FreeWX-Wi 1.02,2013-03-24 12:06:00,
2013-03-24 08:11:00,33.6,3.2,29.91,North,-999,0.0,2.7,27,0.00,,,-99.99,FreeWX-Wi 1.02,2013-03-24 12:11:00,
2013-03-24 08:16:00,34.3,3.0,29.91,North,-999,0.0,0.0,26,0.00,,,-99.99,FreeWX-Wi 1.02,2013-03-24 12:16:00,
2013-03-24 08:21:00,35.1,3.7,29.91,North,-999,0.0,0.0,26,0.00,,,-99.99,FreeWX-Wi 1.02,2013-03-24 12:21:00,
2013-03-24 08:26:00,36.9,5.2,29.91,North,-999,0.0,2.2,26,0.00,,,-99.99,FreeWX-Wi 1.02,2013-03-24 12:26:00,
2013-03-24 08:31:00,38.3,5.5,29.91,North,-999,0.0,3.1,25,0.00,,,-99.99,FreeWX-Wi 1.02,2013-03-24 12:31:00,
2013-03-24 08:36:00,39.2,6.4,29.91,North,-999,0.0,3.6,25,0.00,,,-99.99,FreeWX-Wi 1.02,2013-03-24 12:36:00,
2013-03-24 08:41:00,39.9,7.0,29.91,North,-999,0.0,5.8,25,0.00,,,-99.99,FreeWX-Wi 1.02,2013-03-24 12:41:00,
2013-03-24 08:46:00,37.9,5.4,29.91,West,272,1.0,4.0,25,0.00,,,-99.99,FreeWX-Wi 1.02,2013-03-24 12:46:00,
2013-03-24 08:51:00,38.8,6.1,29.91,West,275,1.0,4.0,25,0.00,,,-99.99,FreeWX-Wi 1.02,2013-03-24 12:51:00,
2013-03-24 08:56:00,38.8,6.1,29.91,West,277,2.0,5.4,25,0.00,,,-99.99,FreeWX-Wi 1.02,2013-03-24 12:56:00,
2013-03-24 09:06:00,37.2,5.5,29.91,West,273,2.0,5.4,26,0.00,,,-99.99,FreeWX-Wi 1.02,2013-03-24 13:06:00,
2013-03-24 09:11:00,37.8,5.2,29.91,West,273,2.0,5.8,25,0.00,,,-99.99,FreeWX-Wi 1.02,2013-03-24 13:11:00,
2013-03-24 09:16:00,39.4,6.4,29.91,West,279,2.0,4.9,25,0.00,,,-99.99,FreeWX-Wi 1.02,2013-03-24 13:16:00,
2013-03-24 09:21:00,42.4,9.1,29.91,WNW,284,2.0,5.4,25,0.00,,,-99.99,FreeWX-Wi 1.02,2013-03-24 13:21:00,
2013-03-24 09:26:00,41.2,8.1,29.91,WNW,291,2.0,4.9,25,0.00,,,-99.99,FreeWX-Wi 1.02,2013-03-24 13:26:00,
2013-03-24 09:31:00,41.0,7.9,29.91,WNW,301,2.0,4.0,25,0.00,,,-99.99,FreeWX-Wi 1.02,2013-03-24 13:31:00,
2013-03-24 09:36:00,41.4,8.2,29.91,NW,305,2.0,5.8,25,0.00,,,-99.99,FreeWX-Wi 1.02,2013-03-24 13:36:00,
2013-03-24 09:41:00,41.2,8.1,29.88,NW,306,2.0,3.6,25,0.00,,,-99.99,FreeWX-Wi 1.02,2013-03-24 13:41:00,
2013-03-24 09:46:00,40.6,7.5,29.88,NW,304,2.0,4.0,25,0.00,,,-99.99,FreeWX-Wi 1.02,2013-03-24 13:46:00,
2013-03-24 09:51:00,43.0,8.8,29.88,WNW,300,2.0,8.1,24,0.00,,,-99.99,FreeWX-Wi 1.02,2013-03-24 13:51:00,
2013-03-24 09:56:00,44.1,9.7,29.91,WNW,303,2.0,5.8,24,0.00,,,-99.99,FreeWX-Wi 1.02,2013-03-24 13:56:00,
2013-03-24 10:01:00,44.1,9.7,29.91,WNW,299,3.0,8.3,24,0.00,,,-99.99,FreeWX-Wi 1.02,2013-03-24 14:01:00,
2013-03-24 10:07:00,40.3,7.3,29.91,WNW,303,3.0,5.8,25,0.00,,,-99.99,FreeWX-Wi 1.02,2013-03-24 14:07:00,
2013-03-24 10:12:00,42.8,8.6,29.88,NW,305,3.0,5.8,24,0.00,,,-99.99,FreeWX-Wi 1.02,2013-03-24 14:12:00,
2013-03-24 10:17:00,45.1,10.6,29.88,NW,312,3.0,5.4,24,0.00,,,-99.99,FreeWX-Wi 1.02,2013-03-24 14:17:00,
2013-03-24 10:22:00,46.2,11.5,29.88,NW,312,3.0,5.4,24,0.00,,,-99.99,FreeWX-Wi 1.02,2013-03-24 14:22:00,
2013-03-24 10:27:00,46.4,10.6,29.88,NW,316,2.0,4.0,23,0.00,,,-99.99,FreeWX-Wi 1.02,2013-03-24 14:27:00,
2013-03-24 10:32:00,45.3,10.8,29.88,NW,324,3.0,6.3,24,0.00,,,-99.99,FreeWX-Wi 1.02,2013-03-24 14:32:00,
2013-03-24 10:37:00,47.8,11.8,29.88,NW,318,3.0,7.2,23,0.00,,,-99.99,FreeWX-Wi 1.02,2013-03-24 14:37:00,
2013-03-24 10:42:00,45.1,10.6,29.88,NW,319,3.0,5.8,24,0.00,,,-99.99,FreeWX-Wi 1.02,2013-03-24 14:42:00,
2013-03-24 10:47:00,48.2,12.2,29.88,NW,322,3.0,8.3,23,0.00,,,-99.99,FreeWX-Wi 1.02,2013-03-24 14:47:00,
2013-03-24 10:52:00,45.0,10.4,29.88,NNW,328,3.0,6.3,24,0.00,,,-99.99,FreeWX-Wi 1.02,2013-03-24 14:52:00,
2013-03-24 10:57:00,46.2,11.5,29.88,NW,318,3.0,5.8,24,0.00,,,-99.99,FreeWX-Wi 1.02,2013-03-24 14:57:00,
2013-03-24 11:02:00,45.9,11.1,29.88,NW,318,3.0,7.6,24,0.00,,,-99.99,FreeWX-Wi 1.02,2013-03-24 15:02:00,
2013-03-24 11:07:00,45.5,10.8,29.88,NW,322,3.0,6.3,24,0.00,,,-99.99,FreeWX-Wi 1.02,2013-03-24 15:07:00,
2013-03-24 11:12:00,45.5,10.8,29.85,NW,321,3.0,5.4,24,0.00,,,-99.99,FreeWX-Wi 1.02,2013-03-24 15:12:00,
2013-03-24 11:17:00,44.8,10.2,29.85,NW,315,3.0,4.0,24,0.00,,,-99.99,FreeWX-Wi 1.02,2013-03-24 15:17:00,
2013-03-24 11:22:00,43.7,9.3,29.85,NW,313,3.0,6.3,24,0.00,,,-99.99,FreeWX-Wi 1.02,2013-03-24 15:22:00,
2013-03-24 11:27:00,42.8,8.6,29.85,NW,316,3.0,8.1,24,0.00,,,-99.99,FreeWX-Wi 1.02,2013-03-24 15:27:00,
2013-03-24 11:32:00,42.4,9.1,29.85,NW,313,3.0,5.8,25,0.00,,,-99.99,FreeWX-Wi 1.02,2013-03-24 15:32:00,
2013-03-24 11:37:00,42.3,9.0,29.85,NW,318,3.0,6.3,25,0.00,,,-99.99,FreeWX-Wi 1.02,2013-03-24 15:37:00,
2013-03-24 11:42:00,42.6,9.3,29.85,NW,320,3.0,4.9,25,0.00,,,-99.99,FreeWX-Wi 1.02,2013-03-24 15:42:00,
2013-03-24 11:47:00,45.3,10.8,29.85,NW,319,3.0,6.3,24,0.00,,,-99.99,FreeWX-Wi 1.02,2013-03-24 15:47:00,
2013-03-24 11:52:00,47.8,11.8,29.85,NW,325,3.0,5.8,23,0.00,,,-99.99,FreeWX-Wi 1.02,2013-03-24 15:52:00,
2013-03-24 11:57:00,50.0,13.6,29.85,NNW,332,3.0,6.3,23,0.00,,,-99.99,FreeWX-Wi 1.02,2013-03-24 15:57:00,
2013-03-24 12:03:00,50.9,14.4,29.85,NNW,327,3.0,4.9,23,0.00,,,-99.99,FreeWX-Wi 1.02,2013-03-24 16:03:00,
2013-03-24 12:08:00,51.6,15.1,29.85,NW,322,3.0,5.4,23,0.00,,,-99.99,FreeWX-Wi 1.02,2013-03-24 16:08:00,
2013-03-24 12:13:00,50.9,14.4,29.82,NW,321,3.0,8.1,23,0.00,,,-99.99,FreeWX-Wi 1.02,2013-03-24 16:13:00,
2013-03-24 12:18:00,50.9,14.4,29.82,NW,325,3.0,8.1,23,0.00,,,-99.99,FreeWX-Wi 1.02,2013-03-24 16:18:00,
2013-03-24 12:23:00,52.0,14.4,29.82,NW,323,3.0,5.4,22,0.00,,,-99.99,FreeWX-Wi 1.02,2013-03-24 16:23:00,
2013-03-24 12:28:00,51.1,14.5,29.82,NNW,329,3.0,4.0,23,0.00,,,-99.99,FreeWX-Wi 1.02,2013-03-24 16:28:00,
2013-03-24 12:33:00,52.0,14.4,29.82,NNW,334,3.0,8.1,22,0.00,,,-99.99,FreeWX-Wi 1.02,2013-03-24 16:33:00,
2013-03-24 12:38:00,50.2,13.8,29.82,NNW,343,3.0,5.4,23,0.00,,,-99.99,FreeWX-Wi 1.02,2013-03-24 16:38:00,
2013-03-24 12:43:00,50.7,14.4,29.82,NNW,335,3.0,5.8,23,0.00,,,-99.99,FreeWX-Wi 1.02,2013-03-24 16:43:00,
2013-03-24 12:48:00,48.6,12.4,29.82,NNW,330,3.0,5.4,23,0.00,,,-99.99,FreeWX-Wi 1.02,2013-03-24 16:48:00,
2013-03-24 12:53:00,50.0,13.6,29.82,NNW,332,3.0,5.8,23,0.00,,,-99.99,FreeWX-Wi 1.02,2013-03-24 16:53:00,
2013-03-24 12:58:00,49.8,13.5,29.82,NNW,333,3.0,6.3,23,0.00,,,-99.99,FreeWX-Wi 1.02,2013-03-24 16:58:00,
2013-03-24 13:03:00,51.4,14.9,29.82,NNW,337,3.0,5.8,23,0.00,,,-99.99,FreeWX-Wi 1.02,2013-03-24 17:03:00,
2013-03-24 13:08:00,46.4,10.6,29.82,NNW,338,3.0,4.9,23,0.00,,,-99.99,FreeWX-Wi 1.02,2013-03-24 17:08:00,
2013-03-24 13:13:00,45.9,11.1,29.79,NNW,343,3.0,4.9,24,0.00,,,-99.99,FreeWX-Wi 1.02,2013-03-24 17:13:00,
2013-03-24 13:18:00,49.3,13.1,29.79,NNW,346,3.0,5.8,23,0.00,,,-99.99,FreeWX-Wi 1.02,2013-03-24 17:18:00,
2013-03-24 13:23:00,48.2,12.2,29.79,North,356,3.0,8.3,23,0.00,,,-99.99,FreeWX-Wi 1.02,2013-03-24 17:23:00,
2013-03-24 13:28:00,48.0,12.0,29.79,North,356,3.0,6.3,23,0.00,,,-99.99,FreeWX-Wi 1.02,2013-03-24 17:28:00,
2013-03-24 13:33:00,50.5,14.2,29.79,North,357,3.0,5.4,23,0.00,,,-99.99,FreeWX-Wi 1.02,2013-03-24 17:33:00,
2013-03-24 13:38:00,48.6,12.4,29.79,North,3,3.0,6.3,23,0.00,,,-99.99,FreeWX-Wi 1.02,2013-03-24 17:38:00,
2013-03-24 13:43:00,48.7,12.6,29.79,North,6,4.0,5.8,23,0.00,,,-99.99,FreeWX-Wi 1.02,2013-03-24 17:43:00,
2013-03-24 13:48:00,48.4,12.4,29.79,North,1,4.0,7.6,23,0.00,,,-99.99,FreeWX-Wi 1.02,2013-03-24 17:48:00,
2013-03-24 13:53:00,49.6,13.5,29.79,North,350,3.0,5.8,23,0.00,,,-99.99,FreeWX-Wi 1.02,2013-03-24 17:53:00,
2013-03-24 13:58:00,51.4,14.9,29.79,NNW,343,3.0,6.3,23,0.00,,,-99.99,FreeWX-Wi 1.02,2013-03-24 17:58:00,
2013-03-24 14:03:00,50.4,14.0,29.79,NNW,337,3.0,6.3,23,0.00,,,-99.99,FreeWX-Wi 1.02,2013-03-24 18:03:00,
2013-03-24 14:08:00,50.5,14.2,29.79,NNW,337,3.0,5.4,23,0.00,,,-99.99,FreeWX-Wi 1.02,2013-03-24 18:08:00,
2013-03-24 14:13:00,50.2,13.8,29.79,NNW,335,2.0,5.8,23,0.00,,,-99.99,FreeWX-Wi 1.02,2013-03-24 18:13:00,
2013-03-24 14:18:00,50.0,13.6,29.79,NNW,339,3.0,4.9,23,0.00,,,-99.99,FreeWX-Wi 1.02,2013-03-24 18:18:00,
2013-03-24 14:23:00,48.4,12.4,29.79,North,353,3.0,5.4,23,0.00,,,-99.99,FreeWX-Wi 1.02,2013-03-24 18:23:00,
2013-03-24 14:28:00,47.5,11.5,29.79,North,5,3.0,5.4,23,0.00,,,-99.99,FreeWX-Wi 1.02,2013-03-24 18:28:00,
2013-03-24 14:33:00,47.8,11.8,29.79,North,9,3.0,5.8,23,0.00,,,-99.99,FreeWX-Wi 1.02,2013-03-24 18:33:00,
2013-03-24 14:38:00,47.7,11.7,29.79,North,9,3.0,5.8,23,0.00,,,-99.99,FreeWX-Wi 1.02,2013-03-24 18:38:00,
2013-03-24 14:43:00,48.9,12.7,29.76,NNE,13,3.0,5.8,23,0.00,,,-99.99,FreeWX-Wi 1.02,2013-03-24 18:43:00,
2013-03-24 14:48:00,47.8,11.8,29.76,NNE,14,3.0,6.3,23,0.00,,,-99.99,FreeWX-Wi 1.02,2013-03-24 18:48:00,
2013-03-24 14:53:00,48.6,12.4,29.76,NNE,17,3.0,6.3,23,0.00,,,-99.99,FreeWX-Wi 1.02,2013-03-24 18:53:00,
2013-03-24 14:58:00,50.4,14.0,29.76,NNE,15,3.0,4.0,23,0.00,,,-99.99,FreeWX-Wi 1.02,2013-03-24 18:58:00,
2013-03-24 15:03:00,50.2,13.8,29.76,North,6,3.0,5.4,23,0.00,,,-99.99,FreeWX-Wi 1.02,2013-03-24 19:03:00,
2013-03-24 15:08:00,50.5,14.2,29.76,North,352,2.0,4.0,23,0.00,,,-99.99,FreeWX-Wi 1.02,2013-03-24 19:08:00,
2013-03-24 15:13:00,51.1,14.5,29.74,North,352,2.0,4.0,23,0.00,,,-99.99,FreeWX-Wi 1.02,2013-03-24 19:13:00,
2013-03-24 15:18:00,50.2,13.8,29.74,NNW,346,2.0,5.4,23,0.00,,,-99.99,FreeWX-Wi 1.02,2013-03-24 19:18:00,
2013-03-24 15:23:00,50.0,13.6,29.74,NNW,342,2.0,4.9,23,0.00,,,-99.99,FreeWX-Wi 1.02,2013-03-24 19:23:00,
2013-03-24 15:28:00,48.7,12.6,29.74,NNW,347,2.0,5.8,23,0.00,,,-99.99,FreeWX-Wi 1.02,2013-03-24 19:28:00,
2013-03-24 15:33:00,48.7,12.6,29.74,North,350,2.0,5.4,23,0.00,,,-99.99,FreeWX-Wi 1.02,2013-03-24 19:33:00,
2013-03-24 15:38:00,48.0,12.0,29.74,North,4,2.0,4.9,23,0.00,,,-99.99,FreeWX-Wi 1.02,2013-03-24 19:38:00,
2013-03-24 15:43:00,47.8,11.8,29.74,North,1,2.0,3.6,23,0.00,,,-99.99,FreeWX-Wi 1.02,2013-03-24 19:43:00,
2013-03-24 15:48:00,48.4,12.4,29.74,North,4,2.0,4.9,23,0.00,,,-99.99,FreeWX-Wi 1.02,2013-03-24 19:48:00,
2013-03-24 15:53:00,48.9,12.7,29.74,North,7,2.0,3.1,23,0.00,,,-99.99,FreeWX-Wi 1.02,2013-03-24 19:53:00,
2013-03-24 15:58:00,48.7,12.6,29.74,North,11,2.0,6.7,23,0.00,,,-99.99,FreeWX-Wi 1.02,2013-03-24 19:58:00,
2013-03-24 16:03:00,48.7,12.6,29.74,North,9,2.0,6.3,23,0.00,,,-99.99,FreeWX-Wi 1.02,2013-03-24 20:03:00,
2013-03-24 16:08:00,48.7,12.6,29.74,North,4,2.0,5.4,23,0.00,,,-99.99,FreeWX-Wi 1.02,2013-03-24 20:08:00,
2013-03-24 16:13:00,48.0,12.0,29.74,North,8,2.0,5.4,23,0.00,,,-99.99,FreeWX-Wi 1.02,2013-03-24 20:13:00,
2013-03-24 16:18:00,48.2,12.2,29.74,North,8,2.0,4.0,23,0.00,,,-99.99,FreeWX-Wi 1.02,2013-03-24 20:18:00,
2013-03-24 16:23:00,47.5,11.5,29.74,North,10,3.0,5.4,23,0.00,,,-99.99,FreeWX-Wi 1.02,2013-03-24 20:23:00,
2013-03-24 16:28:00,48.6,12.4,29.74,North,9,3.0,5.4,23,0.00,,,-99.99,FreeWX-Wi 1.02,2013-03-24 20:28:00,
2013-03-24 16:33:00,47.3,11.5,29.74,North,10,3.0,5.4,23,0.00,,,-99.99,FreeWX-Wi 1.02,2013-03-24 20:33:00,
2013-03-24 16:38:00,47.1,11.3,29.74,NNE,16,3.0,6.3,23,0.00,,,-99.99,FreeWX-Wi 1.02,2013-03-24 20:38:00,
2013-03-24 16:44:00,46.4,10.6,29.71,NNE,18,3.0,5.8,23,0.00,,,-99.99,FreeWX-Wi 1.02,2013-03-24 20:44:00,
2013-03-24 16:49:00,46.0,11.3,29.71,NNE,22,3.0,6.3,24,0.00,,,-99.99,FreeWX-Wi 1.02,2013-03-24 20:49:00,
2013-03-24 16:54:00,45.7,10.9,29.71,NNE,27,3.0,6.3,24,0.00,,,-99.99,FreeWX-Wi 1.02,2013-03-24 20:54:00,
2013-03-24 16:59:00,46.0,11.3,29.71,NNE,28,3.0,4.0,24,0.00,,,-99.99,FreeWX-Wi 1.02,2013-03-24 20:59:00,
2013-03-24 17:04:00,46.0,11.3,29.71,NNE,19,3.0,4.0,24,0.00,,,-99.99,FreeWX-Wi 1.02,2013-03-24 21:04:00,
2013-03-24 17:09:00,46.0,11.3,29.71,North,10,3.0,4.0,24,0.00,,,-99.99,FreeWX-Wi 1.02,2013-03-24 21:09:00,
2013-03-24 17:14:00,46.0,11.3,29.71,North,4,2.0,5.4,24,0.00,,,-99.99,FreeWX-Wi 1.02,2013-03-24 21:14:00,
2013-03-24 17:19:00,45.5,10.8,29.71,North,3,2.0,3.6,24,0.00,,,-99.99,FreeWX-Wi 1.02,2013-03-24 21:19:00,
2013-03-24 17:24:00,45.5,10.8,29.71,North,357,2.0,5.8,24,0.00,,,-99.99,FreeWX-Wi 1.02,2013-03-24 21:24:00,
2013-03-24 17:29:00,45.5,10.8,29.71,North,2,2.0,4.9,24,0.00,,,-99.99,FreeWX-Wi 1.02,2013-03-24 21:29:00,
2013-03-24 17:34:00,45.3,10.8,29.71,NNE,13,2.0,4.9,24,0.00,,,-99.99,FreeWX-Wi 1.02,2013-03-24 21:34:00,
2013-03-24 17:39:00,45.3,10.8,29.71,NNE,20,2.0,4.9,24,0.00,,,-99.99,FreeWX-Wi 1.02,2013-03-24 21:39:00,
2013-03-24 17:44:00,45.1,10.6,29.71,NNE,24,2.0,5.4,24,0.00,,,-99.99,FreeWX-Wi 1.02,2013-03-24 21:44:00,
2013-03-24 17:49:00,45.1,10.6,29.71,NNE,29,2.0,3.1,24,0.00,,,-99.99,FreeWX-Wi 1.02,2013-03-24 21:49:00,
2013-03-24 17:54:00,44.8,10.2,29.71,NE,39,2.0,5.4,24,0.00,,,-99.99,FreeWX-Wi 1.02,2013-03-24 21:54:00,
2013-03-24 17:59:00,44.8,10.2,29.71,NE,46,2.0,4.0,24,0.00,,,-99.99,FreeWX-Wi 1.02,2013-03-24 21:59:00,
2013-03-24 18:04:00,44.6,10.0,29.71,NE,49,2.0,4.0,24,0.00,,,-99.99,FreeWX-Wi 1.02,2013-03-24 22:04:00,
2013-03-24 18:09:00,44.6,10.0,29.71,NE,48,2.0,6.3,24,0.00,,,-99.99,FreeWX-Wi 1.02,2013-03-24 22:09:00,
2013-03-24 18:14:00,44.2,9.7,29.71,NE,54,2.0,5.4,24,0.00,,,-99.99,FreeWX-Wi 1.02,2013-03-24 22:14:00,
2013-03-24 18:19:00,44.1,9.7,29.71,NE,56,1.0,0.0,24,0.00,,,-99.99,FreeWX-Wi 1.02,2013-03-24 22:19:00,
2013-03-24 18:24:00,44.1,9.7,29.71,NE,50,1.0,3.1,24,0.00,,,-99.99,FreeWX-Wi 1.02,2013-03-24 22:24:00,
2013-03-24 18:29:00,43.7,9.3,29.71,North,-999,0.0,0.0,24,0.00,,,-99.99,FreeWX-Wi 1.02,2013-03-24 22:29:00,
2013-03-24 18:34:00,43.5,9.1,29.71,NE,41,1.0,3.6,24,0.00,,,-99.99,FreeWX-Wi 1.02,2013-03-24 22:34:00,
2013-03-24 18:39:00,43.5,9.1,29.71,North,-999,0.0,3.6,24,0.00,,,-99.99,FreeWX-Wi 1.02,2013-03-24 22:39:00,
2013-03-24 18:44:00,43.2,8.8,29.71,NNE,30,1.0,4.0,24,0.00,,,-99.99,FreeWX-Wi 1.02,2013-03-24 22:44:00,
2013-03-24 18:49:00,42.8,8.6,29.71,NNE,22,1.0,3.6,24,0.00,,,-99.99,FreeWX-Wi 1.02,2013-03-24 22:49:00,
2013-03-24 18:54:00,42.6,9.3,29.71,NNE,15,1.0,2.7,25,0.00,,,-99.99,FreeWX-Wi 1.02,2013-03-24 22:54:00,
2013-03-24 18:59:00,42.3,9.0,29.71,North,11,1.0,0.0,25,0.00,,,-99.99,FreeWX-Wi 1.02,2013-03-24 22:59:00,
2013-03-24 19:04:00,42.1,8.8,29.71,North,-999,0.0,3.1,25,0.00,,,-99.99,FreeWX-Wi 1.02,2013-03-24 23:04:00,
2013-03-24 19:09:00,41.7,8.6,29.71,North,-999,0.0,0.0,25,0.00,,,-99.99,FreeWX-Wi 1.02,2013-03-24 23:09:00,
2013-03-24 19:14:00,41.5,8.4,29.71,North,-999,0.0,0.0,25,0.00,,,-99.99,FreeWX-Wi 1.02,2013-03-24 23:14:00,
2013-03-24 19:19:00,41.4,8.2,29.71,North,-999,0.0,0.0,25,0.00,,,-99.99,FreeWX-Wi 1.02,2013-03-24 23:19:00,
2013-03-24 19:24:00,41.0,7.9,29.71,North,-999,0.0,0.0,25,0.00,,,-99.99,FreeWX-Wi 1.02,2013-03-24 23:24:00,
2013-03-24 19:29:00,40.6,7.5,29.71,North,-999,0.0,0.0,25,0.00,,,-99.99,FreeWX-Wi 1.02,2013-03-24 23:29:00,
2013-03-24 19:34:00,40.5,7.5,29.71,North,-999,0.0,0.0,25,0.00,,,-99.99,FreeWX-Wi 1.02,2013-03-24 23:34:00,
2013-03-24 19:39:00,40.1,7.2,29.71,North,-999,0.0,0.0,25,0.00,,,-99.99,FreeWX-Wi 1.02,2013-03-24 23:39:00,
2013-03-24 19:44:00,39.9,7.0,29.71,North,-999,0.0,0.0,25,0.00,,,-99.99,FreeWX-Wi 1.02,2013-03-24 23:44:00,
2013-03-24 19:49:00,39.9,7.0,29.71,North,-999,0.0,0.0,25,0.00,,,-99.99,FreeWX-Wi 1.02,2013-03-24 23:49:00,
2013-03-24 19:54:00,39.9,7.0,29.71,North,-999,0.0,0.0,25,0.00,,,-99.99,FreeWX-Wi 1.02,2013-03-24 23:54:00,
2013-03-24 19:59:00,39.7,6.8,29.74,North,-999,0.0,0.0,25,0.00,,,-99.99,FreeWX-Wi 1.02,2013-03-24 23:59:00,
2013-03-24 20:04:00,39.7,6.8,29.74,North,-999,0.0,0.0,25,0.00,,,-99.99,FreeWX-Wi 1.02,2013-03-25 00:04:00,
2013-03-24 20:09:00,39.6,6.6,29.74,North,-999,0.0,0.0,25,0.00,,,-99.99,FreeWX-Wi 1.02,2013-03-25 00:09:00,
2013-03-24 20:14:00,39.7,6.8,29.74,North,-999,0.0,0.0,25,0.00,,,-99.99,FreeWX-Wi 1.02,2013-03-25 00:14:00,
2013-03-24 20:19:00,39.9,7.0,29.74,North,-999,0.0,0.0,25,0.00,,,-99.99,FreeWX-Wi 1.02,2013-03-25 00:19:00,
2013-03-24 20:24:00,39.9,7.0,29.74,North,-999,0.0,0.0,25,0.00,,,-99.99,FreeWX-Wi 1.02,2013-03-25 00:24:00,
2013-03-24 20:29:00,39.7,6.8,29.74,North,-999,0.0,0.0,25,0.00,,,-99.99,FreeWX-Wi 1.02,2013-03-25 00:29:00,
2013-03-24 20:34:00,39.6,6.6,29.74,North,-999,0.0,0.0,25,0.00,,,-99.99,FreeWX-Wi 1.02,2013-03-25 00:34:00,
2013-03-24 20:39:00,39.4,6.4,29.74,North,-999,0.0,0.0,25,0.00,,,-99.99,FreeWX-Wi 1.02,2013-03-25 00:39:00,
2013-03-24 20:44:00,39.0,6.3,29.74,North,-999,0.0,0.0,25,0.00,,,-99.99,FreeWX-Wi 1.02,2013-03-25 00:44:00,
2013-03-24 20:49:00,38.8,6.1,29.74,North,-999,0.0,0.0,25,0.00,,,-99.99,FreeWX-Wi 1.02,2013-03-25 00:49:00,
2013-03-24 20:54:00,38.7,5.9,29.74,North,-999,0.0,0.0,25,0.00,,,-99.99,FreeWX-Wi 1.02,2013-03-25 00:54:00,
2013-03-24 20:59:00,38.7,5.9,29.76,North,-999,0.0,0.0,25,0.00,,,-99.99,FreeWX-Wi 1.02,2013-03-25 00:59:00,
2013-03-24 21:04:00,38.7,5.9,29.76,North,-999,0.0,0.0,25,0.00,,,-99.99,FreeWX-Wi 1.02,2013-03-25 01:04:00,
2013-03-24 21:09:00,38.5,5.7,29.76,North,-999,0.0,0.0,25,0.00,,,-99.99,FreeWX-Wi 1.02,2013-03-25 01:09:00,
2013-03-24 21:14:00,38.5,5.7,29.76,North,-999,0.0,0.0,25,0.00,,,-99.99,FreeWX-Wi 1.02,2013-03-25 01:14:00,
2013-03-24 21:19:00,38.3,5.5,29.76,North,-999,0.0,0.0,25,0.00,,,-99.99,FreeWX-Wi 1.02,2013-03-25 01:19:00,
2013-03-24 21:24:00,37.9,5.4,29.76,North,-999,0.0,0.0,25,0.00,,,-99.99,FreeWX-Wi 1.02,2013-03-25 01:24:00,
2013-03-24 21:29:00,37.6,5.0,29.76,North,-999,0.0,0.0,25,0.00,,,-99.99,FreeWX-Wi 1.02,2013-03-25 01:29:00,
2013-03-24 21:34:00,37.4,4.8,29.76,North,-999,0.0,0.0,25,0.00,,,-99.99,FreeWX-Wi 1.02,2013-03-25 01:34:00,
2013-03-24 21:39:00,37.2,5.5,29.76,North,-999,0.0,0.0,26,0.00,,,-99.99,FreeWX-Wi 1.02,2013-03-25 01:39:00,
2013-03-24 21:44:00,37.2,5.5,29.76,North,-999,0.0,0.0,26,0.00,,,-99.99,FreeWX-Wi 1.02,2013-03-25 01:44:00,
2013-03-24 21:49:00,37.4,5.7,29.76,North,-999,0.0,0.0,26,0.00,,,-99.99,FreeWX-Wi 1.02,2013-03-25 01:49:00,
2013-03-24 21:54:00,37.4,5.7,29.76,North,-999,0.0,0.0,26,0.00,,,-99.99,FreeWX-Wi 1.02,2013-03-25 01:54:00,
2013-03-24 21:59:00,37.4,8.1,29.76,North,-999,0.0,3.1,29,0.00,,,-99.99,FreeWX-Wi 1.02,2013-03-25 01:59:00,
2013-03-24 22:04:00,37.2,11.5,29.76,North,-999,0.0,3.6,34,0.00,,,-99.99,FreeWX-Wi 1.02,2013-03-25 02:04:00,
2013-03-24 22:09:00,37.2,11.5,29.76,North,-999,0.0,3.1,34,0.00,,,-99.99,FreeWX-Wi 1.02,2013-03-25 02:09:00,
2013-03-24 22:14:00,37.0,13.3,29.76,North,-999,0.0,0.0,37,0.00,,,-99.99,FreeWX-Wi 1.02,2013-03-25 02:14:00,
2013-03-24 22:19:00,36.9,14.2,29.76,North,-999,0.0,0.0,39,0.00,,,-99.99,FreeWX-Wi 1.02,2013-03-25 02:19:00,
2013-03-24 22:24:00,36.9,13.1,29.76,North,-999,0.0,0.0,37,0.00,,,-99.99,FreeWX-Wi 1.02,2013-03-25 02:24:00,
2013-03-24 22:29:00,36.7,12.9,29.76,North,-999,0.0,0.0,37,0.00,,,-99.99,FreeWX-Wi 1.02,2013-03-25 02:29:00,
2013-03-24 22:34:00,36.7,12.9,29.76,North,-999,0.0,0.0,37,0.00,,,-99.99,FreeWX-Wi 1.02,2013-03-25 02:34:00,
2013-03-24 22:39:00,36.7,12.9,29.76,North,-999,0.0,0.0,37,0.00,,,-99.99,FreeWX-Wi 1.02,2013-03-25 02:39:00,
2013-03-24 22:44:00,36.5,12.7,29.76,North,-999,0.0,0.0,37,0.00,,,-99.99,FreeWX-Wi 1.02,2013-03-25 02:44:00,
2013-03-24 22:49:00,36.5,12.7,29.76,North,-999,0.0,2.7,37,0.00,,,-99.99,FreeWX-Wi 1.02,2013-03-25 02:49:00,
2013-03-24 22:54:00,36.5,12.7,29.76,North,-999,0.0,2.7,37,0.00,,,-99.99,FreeWX-Wi 1.02,2013-03-25 02:54:00,
2013-03-24 22:59:00,36.7,12.9,29.76,North,-999,0.0,3.6,37,0.00,,,-99.99,FreeWX-Wi 1.02,2013-03-25 02:59:00,
2013-03-24 23:04:00,36.5,14.0,29.76,North,-999,0.0,0.0,39,0.00,,,-99.99,FreeWX-Wi 1.02,2013-03-25 03:04:00,
2013-03-24 23:09:00,36.3,15.4,29.76,North,-999,0.0,0.0,42,0.00,,,-99.99,FreeWX-Wi 1.02,2013-03-25 03:09:00,
2013-03-24 23:14:00,36.5,15.6,29.76,North,-999,0.0,3.1,42,0.00,,,-99.99,FreeWX-Wi 1.02,2013-03-25 03:14:00,
2013-03-24 23:19:00,36.3,15.4,29.76,North,-999,0.0,0.0,42,0.00,,,-99.99,FreeWX-Wi 1.02,2013-03-25 03:19:00,
2013-03-24 23:24:00,36.1,16.9,29.76,North,-999,0.0,0.0,45,0.00,,,-99.99,FreeWX-Wi 1.02,2013-03-25 03:24:00,
2013-03-24 23:29:00,36.1,16.9,29.76,North,-999,0.0,2.2,45,0.00,,,-99.99,FreeWX-Wi 1.02,2013-03-25 03:29:00,
2013-03-24 23:34:00,36.0,17.2,29.76,North,-999,0.0,0.0,46,0.00,,,-99.99,FreeWX-Wi 1.02,2013-03-25 03:34:00,
2013-03-24 23:39:00,36.0,17.8,29.76,North,-999,0.0,0.0,47,0.00,,,-99.99,FreeWX-Wi 1.02,2013-03-25 03:39:00,
2013-03-24 23:44:00,35.8,17.6,29.76,North,-999,0.0,0.0,47,0.00,,,-99.99,FreeWX-Wi 1.02,2013-03-25 03:44:00,
2013-03-24 23:49:00,35.8,17.6,29.76,North,-999,0.0,0.0,47,0.00,,,-99.99,FreeWX-Wi 1.02,2013-03-25 03:49:00,
2013-03-24 23:54:00,35.8,17.6,29.76,North,-999,0.0,0.0,47,0.00,,,-99.99,FreeWX-Wi 1.02,2013-03-25 03:54:00,
2013-03-24 23:59:00,35.8,17.1,29.76,North,-999,0.0,0.0,46,0.00,,,-99.99,FreeWX-Wi 1.02,2013-03-25 03:59:00,